Time,TemperatureF,DewpointF,PressureIn,WindDirection,WindDirectionDegrees,WindSpeedMPH,WindSpeedGustMPH,Humidity,HourlyPrecipIn,Conditions,Clouds,dailyrainin,SolarRadiationWatts/m^2,SoftwareType,DateUTC
2013-02-20 00:00:00,18.9,11.4,29.95,WNW,284,5.0,9.2,72,0.00,-SN,,0.00,0.0,WeatherDisplay:10.37,2013-02-20 05:00:00,
2013-02-20 00:01:00,18.9,11.4,29.95,WNW,302,12.1,15.0,72,0.00,-SN,,0.00,0.0,WeatherDisplay:10.37,2013-02-20 05:01:00,
2013-02-20 00:02:00,18.9,11.4,29.95,West,271,12.6,16.1,72,0.00,OVC,,0.00,0.0,WeatherDisplay:10.37,2013-02-20 05:02:00,
2013-02-20 00:07:00,18.9,11.0,29.95,NW,304,14.5,14.5,71,0.00,OVC,,0.00,0.0,WeatherDisplay:10.37,2013-02-20 05:07:00,
2013-02-20 00:12:00,18.9,11.0,29.95,WNW,285,13.8,15.0,71,0.00,OVC,,0.00,0.0,WeatherDisplay:10.37,2013-02-20 05:12:00,
2013-02-20 00:17:00,18.9,11.0,29.96,NW,304,12.1,12.1,71,0.00,OVC,,0.00,0.0,WeatherDisplay:10.37,2013-02-20 05:17:00,
2013-02-20 00:22:00,18.9,11.0,29.96,WNW,284,6.6,10.4,71,0.00,OVC,,0.00,0.0,WeatherDisplay:10.37,2013-02-20 05:22:00,
2013-02-20 00:27:00,18.9,11.0,29.96,WNW,299,11.2,16.1,71,0.00,OVC,,0.00,0.0,WeatherDisplay:10.37,2013-02-20 05:27:00,
2013-02-20 00:32:00,18.8,10.9,29.96,NW,309,15.7,15.7,71,0.00,OVC,,0.00,0.0,WeatherDisplay:10.37,2013-02-20 05:32:00,
2013-02-20 00:37:00,18.8,11.3,29.96,NW,304,5.0,5.0,72,0.00,OVC,,0.00,0.0,WeatherDisplay:10.37,2013-02-20 05:37:00,
2013-02-20 00:42:00,18.6,11.1,29.96,West,264,9.7,10.4,72,0.00,OVC,,0.00,0.0,WeatherDisplay:10.37,2013-02-20 05:42:00,
2013-02-20 00:47:00,18.6,11.1,29.96,WNW,291,6.3,9.2,72,0.00,OVC,,0.00,0.0,WeatherDisplay:10.37,2013-02-20 05:47:00,
2013-02-20 00:52:00,18.6,11.1,29.96,NW,306,6.3,10.4,72,0.00,OVC,,0.00,0.0,WeatherDisplay:10.37,2013-02-20 05:52:00,
2013-02-20 00:55:00,18.6,11.1,29.96,WNW,296,5.7,9.2,72,0.00,OVC,,0.00,0.0,WeatherDisplay:10.37,2013-02-20 05:55:00,
2013-02-20 01:00:00,18.6,11.1,29.96,WNW,287,19.4,19.6,72,0.00,OVC,,0.00,0.0,WeatherDisplay:10.37,2013-02-20 06:00:00,
2013-02-20 01:05:00,18.6,11.1,29.97,WNW,288,10.1,11.5,72,0.00,OVC,,0.00,0.0,WeatherDisplay:10.37,2013-02-20 06:05:00,
2013-02-20 01:10:00,18.6,11.1,29.97,WNW,296,9.4,10.4,72,0.00,OVC,,0.00,0.0,WeatherDisplay:10.37,2013-02-20 06:10:00,
2013-02-20 01:15:00,18.4,10.9,29.97,WNW,287,14.6,18.4,72,0.00,OVC,,0.00,0.0,WeatherDisplay:10.37,2013-02-20 06:15:00,
2013-02-20 01:20:00,18.4,10.9,29.98,WNW,291,5.6,10.4,72,0.00,OVC,,0.00,0.0,WeatherDisplay:10.37,2013-02-20 06:20:00,
2013-02-20 01:25:00,18.4,10.9,29.98,NW,306,11.9,15.0,72,0.00,OVC,,0.00,0.0,WeatherDisplay:10.37,2013-02-20 06:25:00,
2013-02-20 01:30:00,18.4,11.2,29.98,WNW,294,5.8,8.1,73,0.00,OVC,,0.00,0.0,WeatherDisplay:10.37,2013-02-20 06:30:00,
2013-02-20 01:35:00,18.4,11.2,29.98,WNW,288,7.3,11.5,73,0.00,OVC,,0.00,0.0,WeatherDisplay:10.37,2013-02-20 06:35:00,
2013-02-20 01:40:00,18.4,10.9,29.98,WSW,240,14.0,19.6,72,0.00,OVC,,0.00,0.0,WeatherDisplay:10.37,2013-02-20 06:40:00,
2013-02-20 01:45:00,18.3,10.8,29.98,WNW,301,13.3,13.8,72,0.00,OVC,,0.00,0.0,WeatherDisplay:10.37,2013-02-20 06:45:00,
2013-02-20 01:50:00,18.3,10.8,29.98,SW,234,8.5,16.1,72,0.00,OVC,,0.00,0.0,WeatherDisplay:10.37,2013-02-20 06:50:00,
2013-02-20 01:55:00,18.3,11.1,29.98,WNW,301,14.2,15.0,73,0.00,OVC,,0.00,0.0,WeatherDisplay:10.37,2013-02-20 06:55:00,
2013-02-20 02:00:00,18.3,11.1,29.98,WSW,246,13.7,18.4,73,0.00,OVC,,0.00,0.0,WeatherDisplay:10.37,2013-02-20 07:00:00,
2013-02-20 02:05:00,18.3,11.1,29.99,WNW,301,12.3,12.3,73,0.00,-SN,,0.00,0.0,WeatherDisplay:10.37,2013-02-20 07:05:00,
2013-02-20 02:10:00,18.3,11.4,29.99,WNW,299,10.0,10.0,74,0.00,-SN,,0.00,0.0,WeatherDisplay:10.37,2013-02-20 07:10:00,
2013-02-20 02:15:00,18.3,11.4,29.99,NW,308,9.8,9.8,74,0.00,-SN,,0.00,0.0,WeatherDisplay:10.37,2013-02-20 07:15:00,
2013-02-20 02:20:00,18.1,10.9,29.99,WNW,302,16.2,18.4,73,0.00,-SN,,0.00,0.0,WeatherDisplay:10.37,2013-02-20 07:20:00,
2013-02-20 02:25:00,18.1,10.9,29.99,NW,308,9.2,9.2,73,0.00,-SN,,0.00,0.0,WeatherDisplay:10.37,2013-02-20 07:25:00,
2013-02-20 02:30:00,18.1,10.6,29.99,WNW,284,7.7,16.1,72,0.00,-SN,,0.00,0.0,WeatherDisplay:10.37,2013-02-20 07:30:00,
2013-02-20 02:35:00,18.1,10.9,29.99,SSE,152,12.5,15.0,73,0.00,-SN,,0.00,0.0,WeatherDisplay:10.37,2013-02-20 07:35:00,
2013-02-20 02:40:00,18.1,11.2,29.99,WNW,284,14.3,15.0,74,0.00,-SN,,0.00,0.0,WeatherDisplay:10.37,2013-02-20 07:40:00,
2013-02-20 02:45:00,18.0,11.4,29.99,WNW,301,14.7,15.0,75,0.00,-SN,,0.00,0.0,WeatherDisplay:10.37,2013-02-20 07:45:00,
2013-02-20 02:50:00,18.0,11.7,29.99,WNW,299,14.4,15.0,76,0.00,-SN,,0.00,0.0,WeatherDisplay:10.37,2013-02-20 07:50:00,
2013-02-20 02:55:00,18.0,11.4,29.99,WNW,295,12.2,12.2,75,0.00,-SN,,0.00,0.0,WeatherDisplay:10.37,2013-02-20 07:55:00,
2013-02-20 03:00:00,17.8,11.5,29.99,WNW,288,11.1,11.5,76,0.00,-SN,,0.00,0.0,WeatherDisplay:10.37,2013-02-20 08:00:00,
2013-02-20 03:05:00,17.8,11.2,30.00,WNW,288,11.6,13.8,75,0.00,-SN,,0.00,0.0,WeatherDisplay:10.37,2013-02-20 08:05:00,
2013-02-20 03:10:00,17.8,10.9,30.00,WNW,299,7.1,13.5,74,0.00,-SN,,0.00,0.0,WeatherDisplay:10.37,2013-02-20 08:10:00,
2013-02-20 03:15:00,18.0,11.1,30.00,WNW,298,11.1,11.1,74,0.00,-SN,,0.00,0.0,WeatherDisplay:10.37,2013-02-20 08:15:00,
2013-02-20 03:20:00,18.0,10.8,30.00,WNW,299,14.9,16.5,73,0.00,-SN,,0.00,0.0,WeatherDisplay:10.37,2013-02-20 08:20:00,
2013-02-20 03:25:00,18.1,10.9,30.00,WNW,295,12.2,16.1,73,0.00,-SN,,0.00,0.0,WeatherDisplay:10.37,2013-02-20 08:25:00,
2013-02-20 03:30:00,18.1,10.6,30.00,NNW,332,13.1,13.8,72,0.00,-SN,,0.00,0.0,WeatherDisplay:10.37,2013-02-20 08:30:00,
2013-02-20 03:35:00,18.3,10.8,30.00,WNW,285,14.8,15.0,72,0.00,-SN,,0.00,0.0,WeatherDisplay:10.37,2013-02-20 08:35:00,
2013-02-20 03:40:00,18.3,10.8,30.00,NW,304,9.7,11.5,72,0.00,-SN,,0.00,0.0,WeatherDisplay:10.37,2013-02-20 08:40:00,
2013-02-20 03:45:00,18.3,11.1,30.00,West,277,7.7,9.2,73,0.00,-SN,,0.00,0.0,WeatherDisplay:10.37,2013-02-20 08:45:00,
2013-02-20 03:50:00,18.4,10.9,30.00,West,270,13.2,16.1,72,0.00,-SN,,0.00,0.0,WeatherDisplay:10.37,2013-02-20 08:50:00,
2013-02-20 03:55:00,18.4,10.9,30.00,West,275,16.6,19.6,72,0.00,-SN,,0.00,0.0,WeatherDisplay:10.37,2013-02-20 08:55:00,
2013-02-20 04:00:00,18.4,10.6,30.00,WNW,284,11.6,15.0,71,0.00,-SN,,0.00,0.0,WeatherDisplay:10.37,2013-02-20 09:00:00,
2013-02-20 04:05:00,18.3,10.5,30.00,NW,322,18.6,20.7,71,0.00,-SN,,0.00,0.0,WeatherDisplay:10.37,2013-02-20 09:05:00,
2013-02-20 04:10:00,18.3,10.8,30.00,NW,306,12.2,12.2,72,0.00,-SN,,0.00,0.0,WeatherDisplay:10.37,2013-02-20 09:10:00,
2013-02-20 04:15:00,18.3,10.5,30.00,WNW,295,18.9,18.9,71,0.00,-SN,,0.00,0.0,WeatherDisplay:10.37,2013-02-20 09:15:00,
2013-02-20 04:20:00,18.3,10.1,30.01,NW,319,11.7,15.0,70,0.00,-SN,,0.00,0.0,WeatherDisplay:10.37,2013-02-20 09:20:00,
2013-02-20 04:25:00,18.1,10.6,30.01,WNW,302,12.5,12.5,72,0.00,-SN,,0.00,0.0,WeatherDisplay:10.37,2013-02-20 09:25:00,
2013-02-20 04:30:00,17.8,11.2,30.01,WNW,287,11.3,11.5,75,0.00,-SN,,0.00,0.0,WeatherDisplay:10.37,2013-02-20 09:30:00,
2013-02-20 04:35:00,17.5,11.8,30.02,WNW,296,8.9,15.0,78,0.00,-SN,,0.00,0.0,WeatherDisplay:10.37,2013-02-20 09:35:00,
2013-02-20 04:40:00,17.3,11.6,30.02,North,350,11.8,13.8,78,0.00,-SN,,0.00,0.0,WeatherDisplay:10.37,2013-02-20 09:40:00,
2013-02-20 04:45:00,17.5,10.9,30.02,NNW,340,9.5,11.5,75,0.00,-SN,,0.00,0.0,WeatherDisplay:10.37,2013-02-20 09:45:00,
2013-02-20 04:50:00,17.7,10.8,30.03,West,275,12.8,18.4,74,0.00,-SN,,0.00,0.0,WeatherDisplay:10.37,2013-02-20 09:50:00,
2013-02-20 04:55:00,17.7,9.9,30.03,SSW,198,14.5,16.5,71,0.00,-SN,,0.00,0.0,WeatherDisplay:10.37,2013-02-20 09:55:00,
2013-02-20 05:00:00,17.7,8.9,30.03,NW,326,12.2,12.2,68,0.00,-SN,,0.00,0.0,WeatherDisplay:10.37,2013-02-20 10:00:00,
2013-02-20 05:05:00,17.7,8.9,30.04,WNW,302,16.1,16.1,68,0.00,-SN,,0.00,0.0,WeatherDisplay:10.37,2013-02-20 10:05:00,
2013-02-20 05:10:00,17.5,7.0,30.04,NNW,333,18.8,20.7,63,0.00,-SN,,0.00,0.0,WeatherDisplay:10.37,2013-02-20 10:10:00,
2013-02-20 05:15:00,17.3,6.5,30.04,WNW,294,15.5,18.4,62,0.00,-SN,,0.00,0.0,WeatherDisplay:10.37,2013-02-20 10:15:00,
2013-02-20 05:20:00,17.2,6.0,30.05,WNW,299,11.2,15.0,61,0.00,-SN,,0.00,0.0,WeatherDisplay:10.37,2013-02-20 10:20:00,
2013-02-20 05:25:00,17.2,5.7,30.05,WNW,292,15.5,18.4,60,0.00,-SN,,0.00,0.0,WeatherDisplay:10.37,2013-02-20 10:25:00,
2013-02-20 05:30:00,17.2,5.7,30.05,NW,325,13.0,18.4,60,0.00,-SN,,0.00,0.0,WeatherDisplay:10.37,2013-02-20 10:30:00,
2013-02-20 05:35:00,17.3,5.8,30.06,WNW,302,13.2,18.4,60,0.00,-SN,,0.00,0.0,WeatherDisplay:10.37,2013-02-20 10:35:00,
2013-02-20 05:40:00,17.3,5.8,30.06,WNW,291,11.0,11.5,60,0.00,-SN,,0.00,0.0,WeatherDisplay:10.37,2013-02-20 10:40:00,
2013-02-20 05:45:00,17.3,5.8,30.06,NW,323,10.8,15.0,60,0.00,-SN,,0.00,0.0,WeatherDisplay:10.37,2013-02-20 10:45:00,
2013-02-20 05:50:00,17.3,5.8,30.06,WNW,298,16.2,16.2,60,0.00,-SN,,0.00,0.0,WeatherDisplay:10.37,2013-02-20 10:50:00,
2013-02-20 05:55:00,17.3,5.8,30.06,WNW,301,11.1,16.1,60,0.00,-SN,,0.00,0.0,WeatherDisplay:10.37,2013-02-20 10:55:00,
2013-02-20 06:00:00,17.2,5.7,30.06,WNW,289,13.9,15.0,60,0.00,-SN,,0.00,0.0,WeatherDisplay:10.37,2013-02-20 11:00:00,
2013-02-20 06:05:00,17.2,5.7,30.06,WNW,291,15.5,18.4,60,0.00,-SN,,0.00,0.0,WeatherDisplay:10.37,2013-02-20 11:05:00,
2013-02-20 06:10:00,17.0,5.9,30.06,NW,312,13.3,16.1,61,0.00,-SN,,0.00,0.0,WeatherDisplay:10.37,2013-02-20 11:10:00,
2013-02-20 06:15:00,16.9,6.1,30.06,WNW,289,12.1,16.5,62,0.00,-SN,,0.00,0.0,WeatherDisplay:10.37,2013-02-20 11:15:00,
2013-02-20 06:20:00,16.9,6.1,30.07,NW,309,16.2,16.2,62,0.00,-SN,,0.00,0.0,WeatherDisplay:10.37,2013-02-20 11:20:00,
2013-02-20 06:25:00,16.9,6.1,30.07,WNW,287,13.5,18.4,62,0.00,-SN,,0.00,0.0,WeatherDisplay:10.37,2013-02-20 11:25:00,
2013-02-20 06:30:00,16.7,5.9,30.07,WNW,287,17.3,20.7,62,0.00,-SN,,0.00,0.0,WeatherDisplay:10.37,2013-02-20 11:30:00,
2013-02-20 06:35:00,16.7,6.3,30.07,WNW,284,14.2,14.2,63,0.00,-SN,,0.00,0.0,WeatherDisplay:10.37,2013-02-20 11:35:00,
2013-02-20 06:40:00,16.7,6.3,30.07,NW,323,16.0,16.1,63,0.00,-SN,,0.00,0.0,WeatherDisplay:10.37,2013-02-20 11:40:00,
2013-02-20 06:45:00,16.7,6.3,30.07,WNW,301,9.9,10.5,63,0.00,-SN,,0.00,0.0,WeatherDisplay:10.37,2013-02-20 11:45:00,
2013-02-20 06:50:00,16.7,6.6,30.08,WNW,296,15.2,16.1,64,0.00,-SN,,0.00,0.0,WeatherDisplay:10.37,2013-02-20 11:50:00,
2013-02-20 06:55:00,16.9,6.8,30.08,NW,316,11.9,15.0,64,0.00,-SN,,0.00,0.0,WeatherDisplay:10.37,2013-02-20 11:55:00,
2013-02-20 07:00:00,17.0,6.9,30.08,NW,318,12.9,12.9,64,0.00,-SN,,0.00,0.0,WeatherDisplay:10.37,2013-02-20 12:00:00,
2013-02-20 07:05:00,17.0,6.9,30.08,NNW,328,11.7,13.8,64,0.00,-SN,,0.00,0.0,WeatherDisplay:10.37,2013-02-20 12:05:00,
2013-02-20 07:10:00,17.0,6.9,30.08,West,280,13.8,16.1,64,0.00,-SN,,0.00,0.0,WeatherDisplay:10.37,2013-02-20 12:10:00,
2013-02-20 07:15:00,17.2,7.1,30.08,NW,319,13.5,13.8,64,0.00,-SN,,0.00,0.0,WeatherDisplay:10.37,2013-02-20 12:15:00,
2013-02-20 07:20:00,17.2,7.4,30.09,NW,308,11.8,19.6,65,0.00,-SN,,0.00,0.0,WeatherDisplay:10.37,2013-02-20 12:20:00,
2013-02-20 07:25:00,17.2,7.8,30.09,West,278,9.1,10.4,66,0.00,-SN,,0.00,0.0,WeatherDisplay:10.37,2013-02-20 12:25:00,
2013-02-20 07:30:00,17.2,7.8,30.09,WNW,299,14.4,14.4,66,0.00,-SN,,0.00,5.0,WeatherDisplay:10.37,2013-02-20 12:30:00,
2013-02-20 07:35:00,17.2,8.1,30.10,WNW,294,14.1,16.1,67,0.00,-SN,,0.00,7.0,WeatherDisplay:10.37,2013-02-20 12:35:00,
2013-02-20 07:40:00,17.2,8.1,30.10,WNW,298,11.8,15.0,67,0.00,-SN,,0.00,9.0,WeatherDisplay:10.37,2013-02-20 12:40:00,
2013-02-20 07:45:00,17.2,8.4,30.10,NNW,335,9.5,11.5,68,0.00,-SN,,0.00,12.0,WeatherDisplay:10.37,2013-02-20 12:45:00,
2013-02-20 07:50:00,17.2,8.4,30.10,WNW,285,11.5,11.5,68,0.00,-SN,,0.00,18.0,WeatherDisplay:10.37,2013-02-20 12:50:00,
2013-02-20 07:55:00,17.2,8.4,30.10,NW,308,11.8,11.8,68,0.00,-SN,,0.00,23.0,WeatherDisplay:10.37,2013-02-20 12:55:00,
2013-02-20 08:00:00,17.0,8.6,30.10,WNW,284,11.7,11.7,69,0.00,-SN,,0.00,21.0,WeatherDisplay:10.37,2013-02-20 13:00:00,
2013-02-20 08:05:00,17.0,8.3,30.10,WNW,301,11.7,11.7,68,0.00,OVC,,0.00,35.0,WeatherDisplay:10.37,2013-02-20 13:05:00,
2013-02-20 08:10:00,17.0,8.3,30.10,WNW,289,14.1,15.0,68,0.00,OVC,,0.00,33.0,WeatherDisplay:10.37,2013-02-20 13:10:00,
2013-02-20 08:15:00,17.0,8.3,30.10,WNW,289,14.1,15.0,68,0.00,OVC,,0.00,37.0,WeatherDisplay:10.37,2013-02-20 13:15:00,
2013-02-20 08:20:00,17.2,8.1,30.11,NNW,330,14.1,14.1,67,0.00,OVC,,0.00,35.0,WeatherDisplay:10.37,2013-02-20 13:20:00,
2013-02-20 08:25:00,17.3,8.2,30.11,WNW,295,8.9,10.4,67,0.00,OVC,,0.00,40.0,WeatherDisplay:10.37,2013-02-20 13:25:00,
2013-02-20 08:30:00,17.7,8.3,30.11,WNW,289,9.1,11.5,66,0.00,OVC,,0.00,48.0,WeatherDisplay:10.37,2013-02-20 13:30:00,
2013-02-20 08:35:00,17.8,8.0,30.11,WNW,296,12.0,12.0,65,0.00,OVC,,0.00,44.0,WeatherDisplay:10.37,2013-02-20 13:35:00,
2013-02-20 08:40:00,18.0,7.9,30.11,NNW,337,12.7,18.4,64,0.00,OVC,,0.00,69.0,WeatherDisplay:10.37,2013-02-20 13:40:00,
2013-02-20 08:45:00,18.1,8.0,30.11,WNW,285,11.0,11.5,64,0.00,OVC,,0.00,146.0,WeatherDisplay:10.37,2013-02-20 13:45:00,
2013-02-20 08:50:00,18.3,7.8,30.11,WNW,292,10.1,19.5,63,0.00,OVC,,0.00,62.0,WeatherDisplay:10.37,2013-02-20 13:50:00,
2013-02-20 08:55:00,18.3,7.4,30.11,West,260,10.8,15.0,62,0.00,OVC,,0.00,39.0,WeatherDisplay:10.37,2013-02-20 13:55:00,
2013-02-20 09:00:00,18.4,7.9,30.11,NNW,329,13.6,16.1,63,0.00,OVC,,0.00,48.0,WeatherDisplay:10.37,2013-02-20 14:00:00,
2013-02-20 09:05:00,18.8,7.9,30.11,West,265,24.9,25.5,62,0.00,SCT,,0.00,62.0,WeatherDisplay:10.37,2013-02-20 14:05:00,
2013-02-20 09:10:00,18.9,8.0,30.11,WNW,302,14.0,19.6,62,0.00,SCT,,0.00,74.0,WeatherDisplay:10.37,2013-02-20 14:10:00,
2013-02-20 09:15:00,19.1,7.8,30.11,WNW,295,16.9,16.9,61,0.00,SCT,,0.00,90.0,WeatherDisplay:10.37,2013-02-20 14:15:00,
2013-02-20 09:20:00,19.2,7.9,30.12,NW,320,9.7,13.8,61,0.00,SCT,,0.00,70.0,WeatherDisplay:10.37,2013-02-20 14:20:00,
2013-02-20 09:25:00,19.5,8.6,30.12,NW,320,6.5,8.1,62,0.00,SCT,,0.00,146.0,WeatherDisplay:10.37,2013-02-20 14:25:00,
2013-02-20 09:30:00,20.0,8.7,30.12,NW,322,11.5,12.0,61,0.00,SCT,,0.00,276.0,WeatherDisplay:10.37,2013-02-20 14:30:00,
2013-02-20 09:35:00,19.9,8.6,30.11,West,281,5.9,9.2,61,0.00,SCT,,0.00,104.0,WeatherDisplay:10.37,2013-02-20 14:35:00,
2013-02-20 09:40:00,19.7,8.0,30.11,WNW,302,15.0,15.0,60,0.00,SCT,,0.00,172.0,WeatherDisplay:10.37,2013-02-20 14:40:00,
2013-02-20 09:45:00,19.9,8.2,30.11,WNW,292,13.1,21.0,60,0.00,SCT,,0.00,188.0,WeatherDisplay:10.37,2013-02-20 14:45:00,
2013-02-20 09:50:00,19.9,8.2,30.12,West,261,12.2,15.0,60,0.00,SCT,,0.00,167.0,WeatherDisplay:10.37,2013-02-20 14:50:00,
2013-02-20 09:55:00,19.9,7.9,30.12,WNW,289,16.5,19.6,59,0.00,SCT,,0.00,202.0,WeatherDisplay:10.37,2013-02-20 14:55:00,
2013-02-20 10:00:00,20.2,8.1,30.12,NW,304,6.4,13.8,59,0.00,SCT,,0.00,155.0,WeatherDisplay:10.37,2013-02-20 15:00:00,
2013-02-20 10:05:00,20.3,8.2,30.12,WNW,296,9.7,15.0,59,0.00,SCT,,0.00,169.0,WeatherDisplay:10.37,2013-02-20 15:05:00,
2013-02-20 10:10:00,20.5,8.8,30.12,WNW,292,8.7,9.2,60,0.00,SCT,,0.00,121.0,WeatherDisplay:10.37,2013-02-20 15:10:00,
2013-02-20 10:15:00,20.5,8.4,30.12,WNW,299,13.5,13.5,59,0.00,SCT,,0.00,278.0,WeatherDisplay:10.37,2013-02-20 15:15:00,
2013-02-20 10:20:00,20.6,8.5,30.12,WNW,294,8.3,12.0,59,0.00,SCT,,0.00,172.0,WeatherDisplay:10.37,2013-02-20 15:20:00,
2013-02-20 10:25:00,20.5,8.4,30.12,WNW,292,8.6,10.4,59,0.00,SCT,,0.00,130.0,WeatherDisplay:10.37,2013-02-20 15:25:00,
2013-02-20 10:30:00,20.5,8.4,30.12,West,278,8.1,20.7,59,0.00,SCT,,0.00,234.0,WeatherDisplay:10.37,2013-02-20 15:30:00,
2013-02-20 10:35:00,20.6,8.5,30.13,NNW,332,12.5,12.5,59,0.00,SCT,,0.00,178.0,WeatherDisplay:10.37,2013-02-20 15:35:00,
2013-02-20 10:40:00,20.6,8.1,30.13,NNW,332,8.2,10.4,58,0.00,SCT,,0.00,150.0,WeatherDisplay:10.37,2013-02-20 15:40:00,
2013-02-20 10:45:00,20.8,7.6,30.13,NW,315,5.1,15.0,56,0.00,SCT,,0.00,157.0,WeatherDisplay:10.37,2013-02-20 15:45:00,
2013-02-20 10:50:00,21.1,8.6,30.13,WNW,302,8.5,10.5,58,0.00,SCT,,0.00,151.0,WeatherDisplay:10.37,2013-02-20 15:50:00,
2013-02-20 10:55:00,20.8,7.9,30.13,WNW,299,8.9,10.4,57,0.00,SCT,,0.00,160.0,WeatherDisplay:10.37,2013-02-20 15:55:00,
2013-02-20 11:00:00,20.6,7.8,30.13,NNW,335,9.9,13.8,57,0.00,SCT,,0.00,135.0,WeatherDisplay:10.37,2013-02-20 16:00:00,
2013-02-20 11:05:00,20.8,7.9,30.14,NW,304,7.4,9.2,57,0.00,OVC,,0.00,185.0,WeatherDisplay:10.37,2013-02-20 16:05:00,
2013-02-20 11:10:00,20.8,7.9,30.14,WNW,301,12.8,15.0,57,0.00,OVC,,0.00,162.0,WeatherDisplay:10.37,2013-02-20 16:10:00,
2013-02-20 11:15:00,20.6,7.8,30.14,NW,320,9.5,10.4,57,0.00,OVC,,0.00,176.0,WeatherDisplay:10.37,2013-02-20 16:15:00,
2013-02-20 11:20:00,20.8,8.3,30.14,NW,312,10.2,11.5,58,0.00,OVC,,0.00,165.0,WeatherDisplay:10.37,2013-02-20 16:20:00,
2013-02-20 11:25:00,21.1,8.6,30.14,North,356,10.5,10.5,58,0.00,OVC,,0.00,209.0,WeatherDisplay:10.37,2013-02-20 16:25:00,
2013-02-20 11:30:00,21.0,8.1,30.14,North,0,12.4,15.0,57,0.00,OVC,,0.00,160.0,WeatherDisplay:10.37,2013-02-20 16:30:00,
2013-02-20 11:35:00,21.0,8.1,30.15,NW,319,12.8,13.8,57,0.00,OVC,,0.00,164.0,WeatherDisplay:10.37,2013-02-20 16:35:00,
2013-02-20 11:40:00,21.1,8.6,30.15,NW,322,9.7,15.0,58,0.00,OVC,,0.00,183.0,WeatherDisplay:10.37,2013-02-20 16:40:00,
2013-02-20 11:45:00,21.3,8.8,30.15,WNW,285,10.4,10.4,58,0.00,OVC,,0.00,187.0,WeatherDisplay:10.37,2013-02-20 16:45:00,
2013-02-20 11:50:00,21.4,8.5,30.15,WNW,294,7.4,9.2,57,0.00,OVC,,0.00,153.0,WeatherDisplay:10.37,2013-02-20 16:50:00,
2013-02-20 11:55:00,21.4,8.9,30.15,WNW,291,16.3,20.7,58,0.00,OVC,,0.00,150.0,WeatherDisplay:10.37,2013-02-20 16:55:00,
2013-02-20 12:00:00,20.8,9.5,30.15,West,272,22.4,25.3,61,0.00,OVC,,0.00,174.0,WeatherDisplay:10.37,2013-02-20 17:00:00,
2013-02-20 12:05:00,20.8,10.2,30.16,WNW,302,9.2,10.4,63,0.00,OVC,,0.00,208.0,WeatherDisplay:10.37,2013-02-20 17:05:00,
2013-02-20 12:10:00,21.1,9.7,30.16,WNW,301,9.3,10.4,61,0.00,OVC,,0.00,202.0,WeatherDisplay:10.37,2013-02-20 17:10:00,
2013-02-20 12:15:00,21.3,9.6,30.16,NW,323,12.1,12.1,60,0.00,OVC,,0.00,150.0,WeatherDisplay:10.37,2013-02-20 17:15:00,
2013-02-20 12:20:00,21.3,10.3,30.16,WNW,298,8.9,11.5,62,0.00,OVC,,0.00,209.0,WeatherDisplay:10.37,2013-02-20 17:20:00,
2013-02-20 12:25:00,21.0,10.7,30.16,WNW,298,11.2,11.2,64,0.00,OVC,,0.00,190.0,WeatherDisplay:10.37,2013-02-20 17:25:00,
2013-02-20 12:30:00,21.0,10.0,30.16,WNW,294,9.6,9.6,62,0.00,OVC,,0.00,176.0,WeatherDisplay:10.37,2013-02-20 17:30:00,
2013-02-20 12:35:00,21.1,9.7,30.16,NW,306,10.4,15.0,61,0.00,OVC,,0.00,141.0,WeatherDisplay:10.37,2013-02-20 17:35:00,
2013-02-20 12:40:00,21.4,10.4,30.16,NW,305,9.4,13.8,62,0.00,OVC,,0.00,181.0,WeatherDisplay:10.37,2013-02-20 17:40:00,
2013-02-20 12:45:00,21.8,10.8,30.16,NW,306,10.0,11.5,62,0.00,OVC,,0.00,192.0,WeatherDisplay:10.37,2013-02-20 17:45:00,
2013-02-20 12:50:00,21.8,9.7,30.16,NW,309,10.8,16.5,59,0.00,OVC,,0.00,204.0,WeatherDisplay:10.37,2013-02-20 17:50:00,
2013-02-20 12:55:00,21.4,9.7,30.16,WNW,299,12.5,12.5,60,0.00,OVC,,0.00,204.0,WeatherDisplay:10.37,2013-02-20 17:55:00,
2013-02-20 13:00:00,21.6,9.5,30.16,NW,312,14.8,19.6,59,0.00,OVC,,0.00,209.0,WeatherDisplay:10.37,2013-02-20 18:00:00,
2013-02-20 13:05:00,21.9,9.7,30.16,NW,311,6.4,10.4,59,0.00,OVC,,0.00,211.0,WeatherDisplay:10.37,2013-02-20 18:05:00,
2013-02-20 13:10:00,21.9,9.4,30.16,WNW,298,18.2,21.0,58,0.00,OVC,,0.00,197.0,WeatherDisplay:10.37,2013-02-20 18:10:00,
2013-02-20 13:15:00,21.8,9.3,30.16,NW,305,11.4,16.5,58,0.00,OVC,,0.00,176.0,WeatherDisplay:10.37,2013-02-20 18:15:00,
2013-02-20 13:20:00,21.8,8.9,30.17,WNW,287,15.8,15.8,57,0.00,OVC,,0.00,206.0,WeatherDisplay:10.37,2013-02-20 18:20:00,
2013-02-20 13:25:00,21.8,8.9,30.17,West,274,13.5,16.1,57,0.00,OVC,,0.00,206.0,WeatherDisplay:10.37,2013-02-20 18:25:00,
2013-02-20 13:30:00,22.1,9.2,30.17,NW,313,7.2,9.2,57,0.00,OVC,,0.00,190.0,WeatherDisplay:10.37,2013-02-20 18:30:00,
2013-02-20 13:35:00,22.4,9.4,30.17,WSW,251,10.3,18.4,57,0.00,OVC,,0.00,192.0,WeatherDisplay:10.37,2013-02-20 18:35:00,
2013-02-20 13:40:00,22.2,9.3,30.17,WNW,285,7.1,10.5,57,0.00,OVC,,0.00,167.0,WeatherDisplay:10.37,2013-02-20 18:40:00,
2013-02-20 13:45:00,22.2,9.3,30.17,WNW,292,7.3,9.2,57,0.00,OVC,,0.00,178.0,WeatherDisplay:10.37,2013-02-20 18:45:00,
2013-02-20 13:50:00,22.5,9.9,30.17,NW,323,6.7,9.2,58,0.00,OVC,,0.00,201.0,WeatherDisplay:10.37,2013-02-20 18:50:00,
2013-02-20 13:55:00,22.5,9.1,30.17,WNW,288,6.1,8.1,56,0.00,OVC,,0.00,148.0,WeatherDisplay:10.37,2013-02-20 18:55:00,
2013-02-20 14:00:00,22.4,9.4,30.17,WNW,302,11.8,16.1,57,0.00,OVC,,0.00,157.0,WeatherDisplay:10.37,2013-02-20 19:00:00,
2013-02-20 14:06:00,22.2,9.7,30.17,NW,318,10.0,10.4,58,0.00,OVC,,0.00,194.0,WeatherDisplay:10.37,2013-02-20 19:06:00,
2013-02-20 14:11:00,22.4,9.4,30.17,WNW,292,8.2,10.4,57,0.00,OVC,,0.00,172.0,WeatherDisplay:10.37,2013-02-20 19:11:00,
2013-02-20 14:16:00,22.5,9.5,30.17,NNW,337,7.7,9.2,57,0.00,OVC,,0.00,158.0,WeatherDisplay:10.37,2013-02-20 19:16:00,
2013-02-20 14:21:00,22.4,9.4,30.17,NNW,335,11.2,11.5,57,0.00,OVC,,0.00,143.0,WeatherDisplay:10.37,2013-02-20 19:21:00,
2013-02-20 14:26:00,22.2,9.7,30.17,West,274,12.2,16.1,58,0.00,OVC,,0.00,127.0,WeatherDisplay:10.37,2013-02-20 19:26:00,
2013-02-20 14:31:00,22.2,9.7,30.17,WNW,298,6.1,8.1,58,0.00,OVC,,0.00,137.0,WeatherDisplay:10.37,2013-02-20 19:31:00,
2013-02-20 14:36:00,22.5,9.5,30.18,West,275,8.2,9.0,57,0.00,OVC,,0.00,151.0,WeatherDisplay:10.37,2013-02-20 19:36:00,
2013-02-20 14:41:00,22.5,9.5,30.18,WNW,291,7.3,11.5,57,0.00,OVC,,0.00,135.0,WeatherDisplay:10.37,2013-02-20 19:41:00,
2013-02-20 14:46:00,22.5,9.5,30.18,WNW,302,5.9,9.0,57,0.00,OVC,,0.00,127.0,WeatherDisplay:10.37,2013-02-20 19:46:00,
2013-02-20 14:51:00,22.5,9.5,30.17,NW,311,16.5,18.4,57,0.00,OVC,,0.00,132.0,WeatherDisplay:10.37,2013-02-20 19:51:00,
2013-02-20 14:56:00,22.2,9.3,30.17,WNW,298,10.8,10.8,57,0.00,OVC,,0.00,141.0,WeatherDisplay:10.37,2013-02-20 19:56:00,
2013-02-20 15:01:00,22.4,9.8,30.17,WNW,282,9.6,12.0,58,0.00,OVC,,0.00,132.0,WeatherDisplay:10.37,2013-02-20 20:01:00,
2013-02-20 15:06:00,22.4,10.6,30.18,NW,306,5.8,8.1,60,0.00,OVC,,0.00,118.0,WeatherDisplay:10.37,2013-02-20 20:06:00,
2013-02-20 15:11:00,22.4,10.2,30.18,West,277,11.9,11.9,59,0.00,OVC,,0.00,123.0,WeatherDisplay:10.37,2013-02-20 20:11:00,
2013-02-20 15:16:00,22.2,10.4,30.18,WNW,299,11.7,13.8,60,0.00,OVC,,0.00,107.0,WeatherDisplay:10.37,2013-02-20 20:16:00,
2013-02-20 15:21:00,22.1,10.7,30.18,West,274,11.3,11.5,61,0.00,OVC,,0.00,123.0,WeatherDisplay:10.37,2013-02-20 20:21:00,
2013-02-20 15:26:00,22.4,11.0,30.18,West,277,4.8,9.2,61,0.00,OVC,,0.00,125.0,WeatherDisplay:10.37,2013-02-20 20:26:00,
2013-02-20 15:31:00,22.5,10.7,30.18,NW,320,6.8,9.2,60,0.00,OVC,,0.00,93.0,WeatherDisplay:10.37,2013-02-20 20:31:00,
2013-02-20 15:36:00,22.5,10.7,30.18,WSW,253,9.6,10.5,60,0.00,OVC,,0.00,86.0,WeatherDisplay:10.37,2013-02-20 20:36:00,
2013-02-20 15:41:00,22.4,10.2,30.18,WNW,285,8.3,10.4,59,0.00,OVC,,0.00,95.0,WeatherDisplay:10.37,2013-02-20 20:41:00,
2013-02-20 15:46:00,22.4,10.6,30.18,WNW,296,10.0,10.4,60,0.00,OVC,,0.00,93.0,WeatherDisplay:10.37,2013-02-20 20:46:00,
2013-02-20 15:51:00,22.5,11.1,30.19,NNW,340,12.3,12.3,61,0.00,OVC,,0.00,99.0,WeatherDisplay:10.37,2013-02-20 20:51:00,
2013-02-20 15:56:00,22.5,10.7,30.19,NW,305,13.5,15.0,60,0.00,OVC,,0.00,79.0,WeatherDisplay:10.37,2013-02-20 20:56:00,
2013-02-20 16:01:00,22.2,11.1,30.19,WNW,285,7.7,9.2,62,0.00,OVC,,0.00,81.0,WeatherDisplay:10.37,2013-02-20 21:01:00,
2013-02-20 16:06:00,22.4,11.3,30.20,NW,323,10.4,10.4,62,0.00,OVC,,0.00,77.0,WeatherDisplay:10.37,2013-02-20 21:06:00,
2013-02-20 16:11:00,22.4,11.0,30.20,WNW,295,12.5,12.5,61,0.00,OVC,,0.00,74.0,WeatherDisplay:10.37,2013-02-20 21:11:00,
2013-02-20 16:16:00,22.4,11.0,30.20,WNW,292,13.6,13.8,61,0.00,OVC,,0.00,69.0,WeatherDisplay:10.37,2013-02-20 21:16:00,
2013-02-20 16:21:00,22.4,10.6,30.22,WNW,295,8.6,15.0,60,0.00,OVC,,0.00,60.0,WeatherDisplay:10.37,2013-02-20 21:21:00,
2013-02-20 16:26:00,22.5,10.7,30.22,WNW,288,4.6,5.8,60,0.00,OVC,,0.00,49.0,WeatherDisplay:10.37,2013-02-20 21:26:00,
2013-02-20 16:31:00,22.5,10.7,30.22,WNW,287,8.7,15.0,60,0.00,OVC,,0.00,44.0,WeatherDisplay:10.37,2013-02-20 21:31:00,
2013-02-20 16:36:00,22.4,11.0,30.23,SW,224,9.6,11.5,61,0.00,OVC,,0.00,39.0,WeatherDisplay:10.37,2013-02-20 21:36:00,
2013-02-20 16:41:00,22.4,11.0,30.23,NNW,330,8.0,15.0,61,0.00,OVC,,0.00,42.0,WeatherDisplay:10.37,2013-02-20 21:41:00,
2013-02-20 16:46:00,22.2,10.8,30.23,NW,305,10.1,15.0,61,0.00,OVC,,0.00,37.0,WeatherDisplay:10.37,2013-02-20 21:46:00,
2013-02-20 16:51:00,22.2,11.1,30.24,NNW,336,11.0,11.0,62,0.00,OVC,,0.00,32.0,WeatherDisplay:10.37,2013-02-20 21:51:00,
2013-02-20 16:56:00,22.4,11.3,30.24,WNW,298,4.4,5.8,62,0.00,OVC,,0.00,30.0,WeatherDisplay:10.37,2013-02-20 21:56:00,
2013-02-20 17:01:00,22.4,11.3,30.24,WNW,298,11.6,11.6,62,0.00,OVC,,0.00,35.0,WeatherDisplay:10.37,2013-02-20 22:01:00,
2013-02-20 17:06:00,22.4,11.7,30.24,WNW,291,5.7,10.4,63,0.00,OVC,,0.00,26.0,WeatherDisplay:10.37,2013-02-20 22:06:00,
2013-02-20 17:11:00,22.2,11.9,30.24,NNW,332,12.2,12.2,64,0.00,OVC,,0.00,30.0,WeatherDisplay:10.37,2013-02-20 22:11:00,
2013-02-20 17:16:00,22.1,12.1,30.24,NW,311,10.7,10.7,65,0.00,OVC,,0.00,23.0,WeatherDisplay:10.37,2013-02-20 22:16:00,
2013-02-20 17:21:00,22.1,11.8,30.24,NW,305,13.0,13.0,64,0.00,OVC,,0.00,25.0,WeatherDisplay:10.37,2013-02-20 22:21:00,
2013-02-20 17:26:00,22.1,11.8,30.24,WNW,287,14.1,14.1,64,0.00,OVC,,0.00,25.0,WeatherDisplay:10.37,2013-02-20 22:26:00,
2013-02-20 17:31:00,21.9,11.6,30.24,WNW,301,11.7,11.7,64,0.00,OVC,,0.00,25.0,WeatherDisplay:10.37,2013-02-20 22:31:00,
2013-02-20 17:36:00,22.1,11.8,30.23,NNW,330,7.4,9.2,64,0.00,OVC,,0.00,21.0,WeatherDisplay:10.37,2013-02-20 22:36:00,
2013-02-20 17:41:00,22.1,11.8,30.23,NW,312,8.2,9.2,64,0.00,OVC,,0.00,18.0,WeatherDisplay:10.37,2013-02-20 22:41:00,
2013-02-20 17:46:00,22.2,12.2,30.23,WNW,296,7.7,9.2,65,0.00,OVC,,0.00,16.0,WeatherDisplay:10.37,2013-02-20 22:46:00,
2013-02-20 17:51:00,22.2,11.9,30.23,WNW,282,8.6,9.2,64,0.00,OVC,,0.00,12.0,WeatherDisplay:10.37,2013-02-20 22:51:00,
2013-02-20 17:56:00,22.2,11.9,30.23,NW,325,9.5,15.0,64,0.00,OVC,,0.00,9.0,WeatherDisplay:10.37,2013-02-20 22:56:00,
2013-02-20 18:01:00,22.1,12.1,30.23,WNW,284,7.9,12.0,65,0.00,OVC,,0.00,7.0,WeatherDisplay:10.37,2013-02-20 23:01:00,
2013-02-20 18:06:00,22.1,12.1,30.23,NW,304,12.3,13.8,65,0.00,OVC,,0.00,5.0,WeatherDisplay:10.37,2013-02-20 23:06:00,
2013-02-20 18:11:00,21.9,11.9,30.23,WNW,284,12.0,12.0,65,0.00,OVC,,0.00,0.0,WeatherDisplay:10.37,2013-02-20 23:11:00,
2013-02-20 18:16:00,21.9,11.9,30.23,NW,308,12.2,15.0,65,0.00,OVC,,0.00,0.0,WeatherDisplay:10.37,2013-02-20 23:16:00,
2013-02-20 18:21:00,21.9,12.3,30.23,NW,311,6.5,8.1,66,0.00,OVC,,0.00,0.0,WeatherDisplay:10.37,2013-02-20 23:21:00,
2013-02-20 18:26:00,21.9,12.3,30.23,WNW,302,4.1,4.6,66,0.00,OVC,,0.00,0.0,WeatherDisplay:10.37,2013-02-20 23:26:00,
2013-02-20 18:31:00,21.9,12.6,30.23,NW,311,11.3,15.0,67,0.00,OVC,,0.00,0.0,WeatherDisplay:10.37,2013-02-20 23:31:00,
2013-02-20 18:36:00,22.1,12.8,30.22,West,277,5.2,5.2,67,0.00,OVC,,0.00,0.0,WeatherDisplay:10.37,2013-02-20 23:36:00,
2013-02-20 18:41:00,22.1,12.8,30.22,WNW,296,7.6,8.1,67,0.00,OVC,,0.00,0.0,WeatherDisplay:10.37,2013-02-20 23:41:00,
2013-02-20 18:46:00,22.1,12.8,30.22,NW,311,6.9,8.1,67,0.00,OVC,,0.00,0.0,WeatherDisplay:10.37,2013-02-20 23:46:00,
2013-02-20 18:51:00,22.1,12.8,30.22,WNW,295,8.3,9.2,67,0.00,OVC,,0.00,0.0,WeatherDisplay:10.37,2013-02-20 23:51:00,
2013-02-20 18:56:00,22.1,12.8,30.22,NW,306,6.2,6.2,67,0.00,OVC,,0.00,0.0,WeatherDisplay:10.37,2013-02-20 23:56:00,
2013-02-20 19:01:00,22.1,12.8,30.22,NW,315,8.4,11.5,67,0.00,OVC,,0.00,0.0,WeatherDisplay:10.37,2013-02-21 00:01:00,
2013-02-20 19:06:00,22.1,12.8,30.23,NW,315,5.9,8.1,67,0.00,OVC,,0.00,0.0,WeatherDisplay:10.37,2013-02-21 00:06:00,
2013-02-20 19:11:00,22.2,13.2,30.23,WNW,296,4.0,8.1,68,0.00,OVC,,0.00,0.0,WeatherDisplay:10.37,2013-02-21 00:11:00,
2013-02-20 19:16:00,22.2,13.2,30.23,WNW,284,8.7,9.2,68,0.00,OVC,,0.00,0.0,WeatherDisplay:10.37,2013-02-21 00:16:00,
2013-02-20 19:21:00,22.2,13.2,30.24,WNW,299,9.8,12.0,68,0.00,OVC,,0.00,0.0,WeatherDisplay:10.37,2013-02-21 00:21:00,
2013-02-20 19:26:00,22.2,12.9,30.24,WNW,288,5.5,9.2,67,0.00,OVC,,0.00,0.0,WeatherDisplay:10.37,2013-02-21 00:26:00,
2013-02-20 19:31:00,22.2,12.9,30.24,WNW,299,7.6,9.2,67,0.00,OVC,,0.00,0.0,WeatherDisplay:10.37,2013-02-21 00:31:00,
2013-02-20 19:36:00,22.2,12.9,30.24,WSW,258,5.5,5.5,67,0.00,OVC,,0.00,0.0,WeatherDisplay:10.37,2013-02-21 00:36:00,
2013-02-20 19:41:00,22.4,13.1,30.24,WNW,292,7.2,9.2,67,0.00,OVC,,0.00,0.0,WeatherDisplay:10.37,2013-02-21 00:41:00,
2013-02-20 19:46:00,22.4,13.1,30.24,WNW,284,6.7,8.1,67,0.00,OVC,,0.00,0.0,WeatherDisplay:10.37,2013-02-21 00:46:00,
2013-02-20 19:51:00,22.4,13.1,30.24,NW,311,3.3,3.5,67,0.00,OVC,,0.00,0.0,WeatherDisplay:10.37,2013-02-21 00:51:00,
2013-02-20 19:56:00,22.5,13.2,30.24,NW,309,8.4,9.2,67,0.00,OVC,,0.00,0.0,WeatherDisplay:10.37,2013-02-21 00:56:00,
2013-02-20 20:01:00,22.5,13.2,30.24,NW,309,5.3,9.2,67,0.00,OVC,,0.00,0.0,WeatherDisplay:10.37,2013-02-21 01:01:00,
2013-02-20 20:06:00,22.5,13.2,30.23,WNW,302,4.1,4.6,67,0.00,OVC,,0.00,0.0,WeatherDisplay:10.37,2013-02-21 01:06:00,
2013-02-20 20:11:00,22.5,13.5,30.23,NW,326,6.5,10.4,68,0.00,OVC,,0.00,0.0,WeatherDisplay:10.37,2013-02-21 01:11:00,
2013-02-20 20:16:00,22.5,13.5,30.23,NW,305,6.0,6.0,68,0.00,OVC,,0.00,0.0,WeatherDisplay:10.37,2013-02-21 01:16:00,
2013-02-20 20:21:00,22.5,13.5,30.23,WNW,287,3.9,4.6,68,0.00,OVC,,0.00,0.0,WeatherDisplay:10.37,2013-02-21 01:21:00,
2013-02-20 20:26:00,22.5,13.5,30.23,WNW,282,10.9,10.9,68,0.00,OVC,,0.00,0.0,WeatherDisplay:10.37,2013-02-21 01:26:00,
2013-02-20 20:31:00,22.5,13.5,30.23,West,281,5.2,9.2,68,0.00,OVC,,0.00,0.0,WeatherDisplay:10.37,2013-02-21 01:31:00,
2013-02-20 20:36:00,22.5,13.5,30.24,NW,320,3.7,8.1,68,0.00,OVC,,0.00,0.0,WeatherDisplay:10.37,2013-02-21 01:36:00,
2013-02-20 20:41:00,22.5,13.5,30.24,NW,313,4.1,8.1,68,0.00,OVC,,0.00,0.0,WeatherDisplay:10.37,2013-02-21 01:41:00,
2013-02-20 20:46:00,22.7,13.7,30.24,NW,311,3.7,3.7,68,0.00,OVC,,0.00,0.0,WeatherDisplay:10.37,2013-02-21 01:46:00,
2013-02-20 20:51:00,22.7,13.7,30.24,WNW,289,4.6,9.2,68,0.00,OVC,,0.00,0.0,WeatherDisplay:10.37,2013-02-21 01:51:00,
2013-02-20 20:56:00,22.7,14.1,30.24,WNW,289,4.4,4.6,69,0.00,OVC,,0.00,0.0,WeatherDisplay:10.37,2013-02-21 01:56:00,
2013-02-20 21:01:00,22.7,13.7,30.24,NW,312,8.8,11.5,68,0.00,OVC,,0.00,0.0,WeatherDisplay:10.37,2013-02-21 02:01:00,
2013-02-20 21:06:00,22.7,13.7,30.24,WNW,295,7.9,10.4,68,0.00,-SN,,0.00,0.0,WeatherDisplay:10.37,2013-02-21 02:06:00,
2013-02-20 21:11:00,22.7,13.7,30.24,WNW,292,3.9,11.5,68,0.00,-SN,,0.00,0.0,WeatherDisplay:10.37,2013-02-21 02:11:00,
2013-02-20 21:16:00,22.7,14.1,30.24,NW,305,7.2,7.2,69,0.00,-SN,,0.00,0.0,WeatherDisplay:10.37,2013-02-21 02:16:00,
2013-02-20 21:21:00,22.9,14.2,30.24,NW,319,8.7,9.2,69,0.00,-SN,,0.00,0.0,WeatherDisplay:10.37,2013-02-21 02:21:00,
2013-02-20 21:26:00,22.9,14.2,30.24,West,278,11.9,11.9,69,0.00,-SN,,0.00,0.0,WeatherDisplay:10.37,2013-02-21 02:26:00,
2013-02-20 21:31:00,22.7,14.1,30.24,WNW,299,13.7,15.0,69,0.00,-SN,,0.00,0.0,WeatherDisplay:10.37,2013-02-21 02:31:00,
2013-02-20 21:36:00,22.9,14.6,30.24,NW,316,5.0,7.5,70,0.00,-SN,,0.00,0.0,WeatherDisplay:10.37,2013-02-21 02:36:00,
2013-02-20 21:41:00,22.7,14.1,30.24,NW,323,6.2,9.2,69,0.00,-SN,,0.00,0.0,WeatherDisplay:10.37,2013-02-21 02:41:00,
2013-02-20 21:46:00,22.9,13.9,30.24,NW,308,3.7,9.2,68,0.00,-SN,,0.00,0.0,WeatherDisplay:10.37,2013-02-21 02:46:00,
2013-02-20 21:51:00,22.9,13.9,30.24,NW,313,4.6,9.0,68,0.00,-SN,,0.00,0.0,WeatherDisplay:10.37,2013-02-21 02:51:00,
2013-02-20 21:56:00,22.7,13.7,30.24,WNW,285,5.3,9.0,68,0.00,-SN,,0.00,0.0,WeatherDisplay:10.37,2013-02-21 02:56:00,
2013-02-20 22:01:00,22.7,14.1,30.24,NNW,339,4.8,9.2,69,0.00,-SN,,0.00,0.0,WeatherDisplay:10.37,2013-02-21 03:01:00,
2013-02-20 22:06:00,22.7,14.1,30.24,NW,312,5.1,5.1,69,0.00,-SN,,0.00,0.0,WeatherDisplay:10.37,2013-02-21 03:06:00,
2013-02-20 22:11:00,22.7,14.4,30.24,WNW,291,3.1,9.2,70,0.00,-SN,,0.00,0.0,WeatherDisplay:10.37,2013-02-21 03:11:00,
2013-02-20 22:16:00,22.7,14.4,30.24,NW,309,3.4,4.6,70,0.00,-SN,,0.00,0.0,WeatherDisplay:10.37,2013-02-21 03:16:00,
2013-02-20 22:21:00,22.7,14.4,30.24,NW,309,2.2,3.5,70,0.00,-SN,,0.00,0.0,WeatherDisplay:10.37,2013-02-21 03:21:00,
2013-02-20 22:26:00,22.7,14.7,30.24,NW,319,4.0,4.6,71,0.00,-SN,,0.00,0.0,WeatherDisplay:10.37,2013-02-21 03:26:00,
2013-02-20 22:31:00,22.7,14.7,30.24,NW,318,3.0,4.6,71,0.00,-SN,,0.00,0.0,WeatherDisplay:10.37,2013-02-21 03:31:00,
2013-02-20 22:36:00,22.4,15.1,30.25,NW,304,5.4,11.5,73,0.00,-SN,,0.00,0.0,WeatherDisplay:10.37,2013-02-21 03:36:00,
2013-02-20 22:41:00,22.2,14.9,30.25,NNW,335,12.9,16.1,73,0.00,-SN,,0.00,0.0,WeatherDisplay:10.37,2013-02-21 03:41:00,
2013-02-20 22:46:00,22.2,14.9,30.25,NW,319,5.5,9.2,73,0.00,-SN,,0.00,0.0,WeatherDisplay:10.37,2013-02-21 03:46:00,
2013-02-20 22:51:00,22.2,14.5,30.25,NW,316,9.9,9.9,72,0.00,-SN,,0.00,0.0,WeatherDisplay:10.37,2013-02-21 03:51:00,
2013-02-20 22:56:00,22.2,14.5,30.25,NW,323,10.7,10.7,72,0.00,-SN,,0.00,0.0,WeatherDisplay:10.37,2013-02-21 03:56:00,
2013-02-20 23:01:00,22.2,14.2,30.25,North,350,9.9,10.4,71,0.00,-SN,,0.00,0.0,WeatherDisplay:10.37,2013-02-21 04:01:00,
2013-02-20 23:06:00,22.2,13.9,30.25,NW,323,3.0,18.4,70,0.00,-SN,,0.00,0.0,WeatherDisplay:10.37,2013-02-21 04:06:00,
2013-02-20 23:11:00,22.2,13.9,30.25,NW,323,10.1,10.4,70,0.00,-SN,,0.00,0.0,WeatherDisplay:10.37,2013-02-21 04:11:00,
2013-02-20 23:16:00,22.2,13.9,30.25,NW,305,4.3,4.6,70,0.00,-SN,,0.00,0.0,WeatherDisplay:10.37,2013-02-21 04:16:00,
2013-02-20 23:21:00,22.1,13.8,30.25,NW,305,10.7,10.7,70,0.00,-SN,,0.00,0.0,WeatherDisplay:10.37,2013-02-21 04:21:00,
2013-02-20 23:26:00,22.1,14.1,30.25,West,270,6.3,10.4,71,0.00,-SN,,0.00,0.0,WeatherDisplay:10.37,2013-02-21 04:26:00,
2013-02-20 23:31:00,21.9,13.9,30.25,WNW,284,6.6,10.5,71,0.00,-SN,,0.00,0.0,WeatherDisplay:10.37,2013-02-21 04:31:00,
2013-02-20 23:36:00,21.9,13.9,30.25,NNW,339,6.1,9.2,71,0.00,-SN,,0.00,0.0,WeatherDisplay:10.37,2013-02-21 04:36:00,
2013-02-20 23:41:00,21.9,13.9,30.25,NW,313,3.2,3.5,71,0.00,-SN,,0.00,0.0,WeatherDisplay:10.37,2013-02-21 04:41:00,
2013-02-20 23:46:00,21.9,14.3,30.25,WNW,284,6.0,6.0,72,0.00,-SN,,0.00,0.0,WeatherDisplay:10.37,2013-02-21 04:46:00,
2013-02-20 23:51:00,21.8,14.2,30.25,West,277,7.8,10.4,72,0.00,-SN,,0.00,0.0,WeatherDisplay:10.37,2013-02-21 04:51:00,
2013-02-20 23:56:00,21.8,14.2,30.25,WNW,302,2.8,4.6,72,0.00,-SN,,0.00,0.0,WeatherDisplay:10.37,2013-02-21 04:56:00,